Regional Weather Roundup
Issued by NWS Spokane, WA

Home | Current Version | Previous Version | Text Only | Print | Product List | Glossary On
Versions: 1 2 3 4 5 6 7 8 9 10 11 12 13 14 15 16 17 18 19 20 21 22 23 24 25 26 27 28 29 30 31 32 33 34 35 36 37 38 39 40 41 42 43 44 45 46 47 48 49 50
000
NZUS01 KOTX 270210
RWROTX

Eastern Washington/Northern Idaho Roundup
National Weather Service, Spokane WA
600 PM PST SUN FEB 26 2017

Note: "fair" indicated few or no clouds below 12,000 feet with no
significant weather and/or obstructions to visibility.

...Northeast Washington and Northern Idaho Panhandle...

CITY           SKY/WX    TMP DP  RH WIND       PRES   REMARKS
Spokane Intl   LGT SNOW  30  28  92 CALM      29.64S FOG
Spokane Downto CLOUDY    32  30  92 CALM      29.66F
Coeur d Alene  LGT SNOW  29  27  92 CALM      29.65R FOG
Deer Park      CLOUDY    29  25  85 CALM      29.65S
Sandpoint      CLOUDY    30  28  93 CALM      29.65S
Bonners Ferry  LGT SNOW  27  27 100 CALM      29.65S

...Southeast Washington and southern Idaho Panhandle...

CITY           SKY/WX    TMP DP  RH WIND       PRES   REMARKS
Walla Walla    CLOUDY    37  34  89 CALM      29.67S
Pullman/Moscow CLOUDY    29  26  89 CALM      29.65S FOG
Lewiston       LGT SNOW  32  32 100 SW3       29.68S FOG
Lowell           N/A     34  32  92 CALM      29.69R
Grangeville    CLOUDY    32  23  69 SW15      29.60R WCI  22

...Columbia Basin...

CITY           SKY/WX    TMP DP  RH WIND       PRES   REMARKS
Ephrata        MOCLDY    33  27  78 N6        29.68S WCI  28
Moses Lake     MOCLDY    33  29  85 CALM      29.69S
Pasco          CLOUDY    38  35  89 N5        29.71R
Richland       CLOUDY    37  35  92 NW5       29.71S
Hermiston      LGT RAIN  39  36  89 NE7       29.68R
Pendleton      CLOUDY    36  34  92 NE6       29.64R

...East Slopes Cascades...

CITY           SKY/WX    TMP DP  RH WIND       PRES   REMARKS
The Dalles     MOCLDY    40  33  76 NW7       29.70R
Yakima         LGT SNOW  34  33  96 SW3       29.69S FOG
Ellensburg     CLOUDY    30  26  85 NW7       29.66S WCI  23
Wenatchee      CLOUDY    31  30  96 W3        29.71S
Omak           CLOUDY    34  20  56 N10       29.71R WCI  26
Sunnyside      DRIZZLE   35  33  93 SW5       29.70R

...Southern British Columbia...

CITY           SKY/WX    TMP DP  RH WIND       PRES   REMARKS
Penticton      PTCLDY    32  19  59 N8        29.77S WCI  25
Cranbrook      MOCLDY    21   9  58 S6        29.65S WCI  14
Osoyoos          N/A     36  19  51 NW10G17     N/A
Creston          N/A     28  27  93 E1          N/A

...Western Montana...

CITY           SKY/WX    TMP DP  RH WIND       PRES   REMARKS
Kalispell      FLURRIES  22  14  71 N18       29.64S WCI   7
Libby            N/A     27  25  93 W6        29.62S WCI  20
Missoula       CLOUDY    30  27  88 SE5       29.60S WCI  25

...Neighboring Cities...

CITY           SKY/WX    TMP DP  RH WIND       PRES   REMARKS
Seattle        CLOUDY    39  37  92 N10       29.72R
Portland       MOCLDY    38  35  89 SE6       29.74R
Boise          CLOUDY    32  29  88 E9        29.69F WCI  24
Great Falls    LGT SNOW  17  14  88 N10       29.70F FOG     WCI   5
Calgary        FLURRIES  10   1  67 E5        29.76S WCI   2



USA.gov is the U.S. government's official web portal to all federal, state and local government web resources and services.